M I D A S
Marine Information and Data Acquisition System
Tripno 1850 of the Zeeleeuw from 2010-03-30 06:50:56 to 2010-03-30 15:46:48
Back to CruiseResearch ActivitiesStationsMapUnderway DataData graphs

EquipmentUnitsComments
TimeDGPSUTC
LatitudeDGPSDM.mWGS84
LongitudeDGPSDM.mWGS84
SpeedMeteo Stationm/sRelative wind speed
DirectionMeteo StationdegRelative wind direction
TemperatureMeteo Stationdeg CelciusAir temperature
PressureMeteo StationPaAtmospheric pressure
HumidityMeteo Station%Relative humidity
Missing or incorrect values are displayed as -999
Metereological data collected by the RV Zeeleeuw from 2010-03-30 06:47:28 to 2010-03-30 16:28:13
                                                                                    Next 1000 lines
Time Latitude Longitude Speed Direction Temperature Pressure Humidity
2010-03-30 06:47:38 51°13.662 2°55.956 0.7 347 9.9 99010 40
2010-03-30 06:47:43 51°13.663 2°55.953 0.3 278 9.9 99010 41
2010-03-30 06:47:48 51°13.664 2°55.949 0.2 344 9.9 99010 41
2010-03-30 06:47:52 51°13.666 2°55.946 0.1 282 9.9 99010 41
2010-03-30 06:47:57 51°13.667 2°55.94 -999 343 9.9 99010 41
2010-03-30 06:48:03 51°13.67 2°55.933 -999 282 9.9 99010 41
2010-03-30 06:48:08 51°13.671 2°55.927 -999 343 9.9 99010 41
2010-03-30 06:48:13 51°13.674 2°55.92 -999 349 9.9 99010 42
2010-03-30 06:48:17 51°13.675 2°55.914 0.1 354 9.9 99010 42
2010-03-30 06:48:23 51°13.678 2°55.905 0.1 353 9.9 99010 42
2010-03-30 06:48:28 51°13.681 2°55.897 0.1 355 9.9 99010 42
2010-03-30 06:48:33 51°13.683 2°55.889 -999 282 9.9 99010 42
2010-03-30 06:48:38 51°13.685 2°55.881 -999 355 9.9 99010 42
2010-03-30 06:48:43 51°13.687 2°55.874 -999 355 9.9 99010 42
2010-03-30 06:48:48 51°13.688 2°55.866 -999 359 9.9 99010 42
2010-03-30 06:48:53 51°13.69 2°55.857 -999 6 9.9 99010 42
2010-03-30 06:48:57 51°13.691 2°55.851 -999 10 9.9 99010 42
2010-03-30 06:49:03 51°13.692 2°55.841 2.1 15 9.9 99010 42
2010-03-30 06:49:08 51°13.693 2°55.833 1 14 9.9 99010 42
2010-03-30 06:49:13 51°13.694 2°55.825 2.5 17 9.9 99010 42
2010-03-30 06:49:18 51°13.694 2°55.816 1.8 12 9.9 99010 42
2010-03-30 06:49:23 51°13.695 2°55.807 0.8 17 9.9 99010 43
2010-03-30 06:49:28 51°13.695 2°55.798 0.6 19 9.9 99010 43
2010-03-30 06:49:33 51°13.695 2°55.79 1 17 9.9 99010 42
2010-03-30 06:49:38 51°13.695 2°55.781 0.3 33 9.9 99010 42
2010-03-30 06:49:43 51°13.695 2°55.772 0.1 33 9.9 99010 43
2010-03-30 06:49:48 51°13.695 2°55.764 0.1 38 9.9 99010 43
2010-03-30 06:49:53 51°13.694 2°55.756 0.1 37 9.9 99010 44
2010-03-30 06:49:57 51°13.694 2°55.75 1.4 11 9.9 99010 44
2010-03-30 06:50:02 51°13.693 2°55.743 1.2 22 9.9 99010 42
2010-03-30 06:50:07 51°13.692 2°55.737 0.2 25 9.9 99010 42
2010-03-30 06:50:12 51°13.692 2°55.732 0.1 25 9.9 99010 42
2010-03-30 06:50:17 51°13.692 2°55.73 0.1 36 9.9 99010 42
2010-03-30 06:50:21 51°13.692 2°55.729 0.1 34 9.9 99010 41
2010-03-30 06:50:26 51°13.692 2°55.728 2 9 9.9 99010 41
2010-03-30 06:50:31 51°13.693 2°55.728 1.8 21 9.9 99010 42
2010-03-30 06:50:36 51°13.695 2°55.729 0.7 32 9.9 99010 42
2010-03-30 06:50:41 51°13.696 2°55.729 1 25 9.9 99010 42
2010-03-30 06:50:45 51°13.697 2°55.73 2.7 18 9.9 99010 42
2010-03-30 06:50:50 51°13.7 2°55.731 1.8 21 9.9 99010 41
2010-03-30 06:50:55 51°13.702 2°55.731 0.8 25 9.9 99010 41
2010-03-30 06:51:00 51°13.705 2°55.731 0.8 31 9.9 99000 41
2010-03-30 06:51:05 51°13.709 2°55.731 0.2 27 9.9 99000 41
2010-03-30 06:51:09 51°13.711 2°55.731 0.1 25 9.9 99000 43
2010-03-30 06:51:14 51°13.715 2°55.73 -999 24 9.9 99000 43
2010-03-30 06:51:19 51°13.719 2°55.728 -999 26 9.9 99000 42
2010-03-30 06:51:24 51°13.724 2°55.725 0.1 30 9.9 99000 42
2010-03-30 06:51:29 51°13.728 2°55.722 0.1 20 9.9 99010 42
2010-03-30 06:51:34 51°13.733 2°55.718 0.1 35 9.9 99010 42
2010-03-30 06:51:39 51°13.738 2°55.713 0.1 23 9.9 99000 42
2010-03-30 06:51:44 51°13.744 2°55.709 -999 248 9.9 99000 42
2010-03-30 06:51:49 51°13.749 2°55.704 -999 21 9.9 99000 42
2010-03-30 06:51:54 51°13.755 2°55.698 -999 247 9.9 99000 42
2010-03-30 06:51:59 51°13.761 2°55.692 -999 251 9.9 99010 42
2010-03-30 06:52:04 51°13.768 2°55.686 -999 241 9.9 99010 42
2010-03-30 06:52:09 51°13.775 2°55.679 -999 23 9.9 99000 42
2010-03-30 06:52:14 51°13.783 2°55.673 -999 250 9.9 99000 42
2010-03-30 06:52:19 51°13.79 2°55.667 -999 251 9.9 99010 42
2010-03-30 06:52:24 51°13.798 2°55.66 -999 251 9.9 99010 42
2010-03-30 06:52:29 51°13.806 2°55.654 -999 282 9.9 99010 42
2010-03-30 06:52:34 51°13.814 2°55.648 -999 251 9.9 99010 42
2010-03-30 06:52:39 51°13.821 2°55.643 -999 251 9.9 99000 42
2010-03-30 06:52:44 51°13.829 2°55.638 -999 36 9.9 99000 42
2010-03-30 06:52:49 51°13.837 2°55.635 -999 33 9.9 99000 42
2010-03-30 06:52:54 51°13.845 2°55.632 -999 33 9.9 99000 42
2010-03-30 06:52:59 51°13.853 2°55.631 -999 37 9.9 99010 41
2010-03-30 06:53:04 51°13.861 2°55.631 -999 30 9.9 99010 41
2010-03-30 06:53:09 51°13.869 2°55.63 -999 25 9.9 99010 42
2010-03-30 06:53:14 51°13.877 2°55.63 -999 21 9.9 99010 42
2010-03-30 06:53:19 51°13.884 2°55.629 -999 19 9.9 99000 42
2010-03-30 06:53:24 51°13.892 2°55.628 -999 26 9.9 99000 42
2010-03-30 06:53:29 51°13.899 2°55.626 -999 17 9.9 99000 42
2010-03-30 06:53:34 51°13.907 2°55.624 -999 3 9.9 99000 42
2010-03-30 06:53:39 51°13.914 2°55.622 -999 1 9.9 99000 42
2010-03-30 06:53:44 51°13.922 2°55.62 -999 27 9.9 99000 42
2010-03-30 06:53:49 51°13.93 2°55.618 -999 42 10 99000 42
2010-03-30 06:53:53 51°13.936 2°55.615 -999 35 10 99000 42
2010-03-30 06:53:59 51°13.945 2°55.611 -999 24 9.9 99010 42
2010-03-30 06:54:04 51°13.953 2°55.606 -999 35 9.9 99010 42
2010-03-30 06:54:09 51°13.961 2°55.601 -999 24 9.9 99000 42
2010-03-30 06:54:14 51°13.969 2°55.596 -999 35 9.9 99000 42
2010-03-30 06:54:20 51°13.979 2°55.589 -999 24 9.9 99000 42
2010-03-30 06:54:24 51°13.986 2°55.584 -999 35 9.9 99000 42
2010-03-30 06:54:29 51°13.994 2°55.578 -999 23 9.9 99000 42
2010-03-30 06:54:35 51°14.005 2°55.569 -999 35 9.9 99000 42
2010-03-30 06:54:39 51°14.011 2°55.563 -999 23 9.9 99000 42
2010-03-30 06:54:44 51°14.02 2°55.555 -999 262 9.9 99000 42
2010-03-30 06:54:49 51°14.028 2°55.546 -999 261 9.9 99000 42
2010-03-30 06:54:54 51°14.037 2°55.537 -999 256 9.9 99000 42
2010-03-30 06:54:59 51°14.046 2°55.528 -999 252 9.9 99000 42
2010-03-30 06:55:04 51°14.056 2°55.519 -999 245 9.9 99000 42
2010-03-30 06:55:09 51°14.065 2°55.508 -999 250 9.9 99000 42
2010-03-30 06:55:14 51°14.074 2°55.498 -999 261 9.9 99000 42
2010-03-30 06:55:20 51°14.085 2°55.485 -999 261 9.9 99000 42
2010-03-30 06:55:24 51°14.093 2°55.477 -999 250 9.9 99000 42
2010-03-30 06:55:29 51°14.102 2°55.466 -999 255 10 99000 42
2010-03-30 06:55:34 51°14.112 2°55.455 -999 254 10 99000 42
2010-03-30 06:55:39 51°14.122 2°55.444 -999 252 10 99000 41
2010-03-30 06:55:44 51°14.132 2°55.433 -999 251 10 99000 41
2010-03-30 06:55:49 51°14.142 2°55.422 -999 250 10 98990 42
2010-03-30 06:55:54 51°14.152 2°55.41 -999 245 10 98990 42
2010-03-30 06:55:59 51°14.163 2°55.398 -999 23 10 99000 42
2010-03-30 06:56:04 51°14.173 2°55.386 -999 241 10 99000 42
2010-03-30 06:56:09 51°14.184 2°55.374 -999 24 10 99000 42
2010-03-30 06:56:14 51°14.195 2°55.361 -999 35 10 99000 42
2010-03-30 06:56:19 51°14.206 2°55.349 -999 23 10 99000 42
2010-03-30 06:56:24 51°14.217 2°55.336 -999 327 10 99000 42
2010-03-30 06:56:29 51°14.228 2°55.323 -999 327 10 99000 42
2010-03-30 06:56:34 51°14.239 2°55.31 -999 326 10 99000 42
2010-03-30 06:56:39 51°14.25 2°55.297 -999 329 10 99000 42
2010-03-30 06:56:44 51°14.261 2°55.284 -999 320 10 99000 42
2010-03-30 06:56:49 51°14.272 2°55.27 -999 322 10 98990 42
2010-03-30 06:56:54 51°14.283 2°55.257 -999 331 10 98990 42
2010-03-30 06:56:59 51°14.295 2°55.244 -999 329 10 98990 42
2010-03-30 06:57:04 51°14.306 2°55.23 0.1 321 10 98990 42
2010-03-30 06:57:09 51°14.317 2°55.217 0.1 329 10 98990 42
2010-03-30 06:57:14 51°14.329 2°55.204 -999 329 10 98990 42
2010-03-30 06:57:19 51°14.341 2°55.191 -999 321 10 99000 42
2010-03-30 06:57:24 51°14.353 2°55.179 -999 347 10 99000 42
2010-03-30 06:57:29 51°14.365 2°55.166 -999 351 10 99000 42
2010-03-30 06:57:34 51°14.377 2°55.154 -999 331 10 99000 42
2010-03-30 06:57:39 51°14.39 2°55.141 -999 329 10 98990 42
2010-03-30 06:57:44 51°14.402 2°55.129 -999 341 10 98990 42
2010-03-30 06:57:49 51°14.415 2°55.116 -999 336 10 98990 42
2010-03-30 06:57:54 51°14.427 2°55.104 -999 327 10 98990 42
2010-03-30 06:57:59 51°14.439 2°55.091 -999 329 10 98990 42
2010-03-30 06:58:04 51°14.452 2°55.078 -999 324 10 98990 42
2010-03-30 06:58:09 51°14.464 2°55.066 -999 322 10 98990 42
2010-03-30 06:58:14 51°14.477 2°55.053 -999 325 10 98990 42
2010-03-30 06:58:19 51°14.49 2°55.041 -999 325 10.1 98990 41
2010-03-30 06:58:24 51°14.503 2°55.029 -999 321 10.1 98990 41
2010-03-30 06:58:29 51°14.515 2°55.016 -999 320 10 98990 42
2010-03-30 06:58:34 51°14.527 2°55.001 -999 316 10 98990 42
2010-03-30 06:58:39 51°14.537 2°54.984 -999 23 10 98990 42
2010-03-30 06:58:44 51°14.547 2°54.967 0.5 33 10 98990 42
2010-03-30 06:58:49 51°14.557 2°54.949 2 22 10.1 98990 42
2010-03-30 06:58:54 51°14.567 2°54.931 2.5 33 10.1 98990 42
2010-03-30 06:58:59 51°14.577 2°54.912 2.4 22 10.1 98990 42
2010-03-30 06:59:04 51°14.585 2°54.892 3.1 34 10.1 98990 42
2010-03-30 06:59:09 51°14.594 2°54.872 3.2 20 10.1 98990 40
2010-03-30 06:59:14 51°14.601 2°54.85 2.9 35 10.1 98990 40
2010-03-30 06:59:19 51°14.607 2°54.828 3.1 18 10.1 98990 41
2010-03-30 06:59:24 51°14.613 2°54.804 3.5 32 10.1 98990 41
2010-03-30 06:59:29 51°14.617 2°54.78 3.9 25 10 98990 43
2010-03-30 06:59:34 51°14.62 2°54.755 5.5 239 10 98990 43
2010-03-30 06:59:39 51°14.623 2°54.73 5 21 10 98980 41
2010-03-30 06:59:44 51°14.625 2°54.704 5.7 242 10 98980 41
2010-03-30 06:59:49 51°14.626 2°54.678 6.4 20 10.1 98990 41
2010-03-30 06:59:54 51°14.625 2°54.65 6.5 33 10.1 98990 41
2010-03-30 06:59:59 51°14.624 2°54.623 6.2 27 10.1 98990 43
2010-03-30 07:00:05 51°14.621 2°54.591 6.9 240 10.1 98990 43
2010-03-30 07:00:09 51°14.618 2°54.569 6.9 20 10 98990 43
2010-03-30 07:00:14 51°14.614 2°54.543 7.4 233 10 98990 43
2010-03-30 07:00:19 51°14.608 2°54.516 7.6 27 10 98980 43
2010-03-30 07:00:24 51°14.601 2°54.49 7.2 33 10 98980 43
2010-03-30 07:00:29 51°14.594 2°54.463 7.5 28 10.1 98980 41
2010-03-30 07:00:34 51°14.587 2°54.436 8.5 33 10.1 98980 41
2010-03-30 07:00:39 51°14.58 2°54.408 9.1 27 10 98970 41
2010-03-30 07:00:44 51°14.572 2°54.381 9.5 35 10 98970 41
2010-03-30 07:00:49 51°14.565 2°54.353 10.9 22 10.1 98970 42
2010-03-30 07:00:54 51°14.556 2°54.326 9.1 33 10.1 98970 42
2010-03-30 07:00:59 51°14.548 2°54.298 8 22 10 98970 40
2010-03-30 07:01:04 51°14.539 2°54.271 9.6 31 10 98970 40
2010-03-30 07:01:09 51°14.53 2°54.244 8.7 25 10.1 98970 43
2010-03-30 07:01:14 51°14.52 2°54.217 8.7 38 10.1 98970 43
2010-03-30 07:01:19 51°14.51 2°54.19 9.1 28 10.1 98970 42
2010-03-30 07:01:24 51°14.5 2°54.164 8.3 34 10.1 98970 42
2010-03-30 07:01:29 51°14.49 2°54.137 9.5 24 10.1 98960 43
2010-03-30 07:01:34 51°14.479 2°54.111 9.5 35 10.1 98960 43
2010-03-30 07:01:39 51°14.469 2°54.084 7.9 25 10.1 98960 43
2010-03-30 07:01:44 51°14.458 2°54.059 8.6 36 10.1 98960 43
2010-03-30 07:01:49 51°14.447 2°54.033 8.9 22 10.1 98960 42
2010-03-30 07:01:53 51°14.438 2°54.012 9.5 37 10.1 98960 42
2010-03-30 07:01:59 51°14.426 2°53.98 9.6 283 10.1 98970 41
2010-03-30 07:02:04 51°14.414 2°53.954 8.3 34 10.1 98970 41
2010-03-30 07:02:09 51°14.404 2°53.928 9.2 19 10.1 98970 42
2010-03-30 07:02:14 51°14.393 2°53.902 7.8 32 10.1 98970 42
2010-03-30 07:02:19 51°14.382 2°53.875 9.9 26 10.1 98960 41
2010-03-30 07:02:24 51°14.372 2°53.849 8.2 32 10.1 98960 41
2010-03-30 07:02:29 51°14.361 2°53.822 9.6 25 10.1 98970 41
2010-03-30 07:02:33 51°14.353 2°53.801 7.3 32 10.1 98970 41
2010-03-30 07:02:39 51°14.34 2°53.769 9 20 10.1 98960 42
2010-03-30 07:02:44 51°14.33 2°53.742 10.4 34 10.1 98960 42
2010-03-30 07:02:49 51°14.319 2°53.715 10.1 23 10.1 98970 43
2010-03-30 07:02:53 51°14.31 2°53.694 7.8 37 10.1 98970 43
2010-03-30 07:02:59 51°14.297 2°53.662 7.3 22 10.1 98960 42
2010-03-30 07:03:04 51°14.286 2°53.635 7.9 31 10.1 98960 42
2010-03-30 07:03:09 51°14.275 2°53.609 7.7 21 10.1 98970 43
2010-03-30 07:03:14 51°14.265 2°53.582 6.8 36 10.1 98970 43
2010-03-30 07:03:19 51°14.254 2°53.555 7.4 21 10.1 98960 41
2010-03-30 07:03:24 51°14.243 2°53.528 7.3 36 10.1 98960 41
2010-03-30 07:03:29 51°14.233 2°53.501 7.5 23 10.1 98970 42
2010-03-30 07:03:34 51°14.222 2°53.473 7.8 39 10.1 98970 42
2010-03-30 07:03:39 51°14.212 2°53.445 7.1 28 10.1 98960 42
2010-03-30 07:03:44 51°14.201 2°53.418 7.8 39 10.1 98960 42
2010-03-30 07:03:49 51°14.191 2°53.39 7.2 316 10.1 98970 41
2010-03-30 07:03:53 51°14.182 2°53.368 8.1 31 10.1 98970 41
2010-03-30 07:03:59 51°14.169 2°53.335 6.8 19 10.1 98960 43
2010-03-30 07:04:04 51°14.159 2°53.307 6.6 35 10.1 98960 43
2010-03-30 07:04:09 51°14.148 2°53.279 7 27 10.1 98960 41
2010-03-30 07:04:14 51°14.137 2°53.252 7 30 10.1 98960 41
2010-03-30 07:04:19 51°14.126 2°53.223 7.6 24 10.1 98960 41
2010-03-30 07:04:24 51°14.115 2°53.196 7 32 10.1 98960 41
2010-03-30 07:04:29 51°14.105 2°53.167 7 22 10.1 98960 41
2010-03-30 07:04:34 51°14.094 2°53.14 7.1 33 10.1 98960 41
2010-03-30 07:04:39 51°14.084 2°53.112 7.3 24 10.1 98970 42
2010-03-30 07:04:44 51°14.073 2°53.084 7.7 37 10.1 98970 42
2010-03-30 07:04:49 51°14.062 2°53.056 8.7 22 10.1 98970 43
2010-03-30 07:04:54 51°14.051 2°53.028 7.3 32 10.1 98970 43
2010-03-30 07:04:59 51°14.041 2°53 7.2 20 10 98970 41
2010-03-30 07:05:04 51°14.03 2°52.971 7.1 34 10 98970 41
2010-03-30 07:05:09 51°14.02 2°52.942 7.8 26 10 98960 42
2010-03-30 07:05:14 51°14.01 2°52.913 8.2 37 10 98960 42
2010-03-30 07:05:19 51°14.001 2°52.883 7.7 24 10 98960 41
2010-03-30 07:05:24 51°13.991 2°52.854 7 34 10 98960 41
2010-03-30 07:05:29 51°13.982 2°52.825 7.1 22 10 98960 41
2010-03-30 07:05:34 51°13.972 2°52.796 7.6 38 10 98960 41
2010-03-30 07:05:39 51°13.962 2°52.767 6.6 28 10.1 98960 41
2010-03-30 07:05:44 51°13.951 2°52.739 7 34 10.1 98960 41
2010-03-30 07:05:49 51°13.941 2°52.71 8 22 10.1 98960 42
2010-03-30 07:05:54 51°13.93 2°52.681 7.7 36 10.1 98960 42
2010-03-30 07:05:59 51°13.92 2°52.652 7.3 26 10 98970 42
2010-03-30 07:06:04 51°13.909 2°52.624 7.6 38 10 98970 42
2010-03-30 07:06:09 51°13.898 2°52.596 7.4 26 10 98970 43
2010-03-30 07:06:14 51°13.887 2°52.568 7.4 32 10 98970 43
2010-03-30 07:06:19 51°13.876 2°52.539 7.4 23 10 98970 42
2010-03-30 07:06:24 51°13.865 2°52.512 6.9 31 10 98970 42
2010-03-30 07:06:29 51°13.854 2°52.483 7.1 285 10 98970 41
2010-03-30 07:06:34 51°13.843 2°52.454 7.2 30 10 98970 41
2010-03-30 07:06:39 51°13.833 2°52.425 7.4 25 10 98970 42
2010-03-30 07:06:44 51°13.822 2°52.397 7.2 38 10 98970 42
2010-03-30 07:06:49 51°13.812 2°52.368 7.1 283 10 98970 43
2010-03-30 07:06:54 51°13.802 2°52.339 6.9 32 10 98970 43
2010-03-30 07:06:59 51°13.792 2°52.31 7.4 25 10 98970 43
2010-03-30 07:07:04 51°13.781 2°52.281 6.6 32 10 98970 43
2010-03-30 07:07:09 51°13.771 2°52.252 6.5 21 10 98960 41
2010-03-30 07:07:14 51°13.761 2°52.223 7.6 34 10 98960 41
2010-03-30 07:07:19 51°13.75 2°52.196 6.7 29 10 98960 41
2010-03-30 07:07:24 51°13.74 2°52.167 7.6 31 10 98960 41
2010-03-30 07:07:29 51°13.73 2°52.14 7 279 10 98970 41
2010-03-30 07:07:33 51°13.721 2°52.119 6.8 39 10 98970 41
2010-03-30 07:07:39 51°13.709 2°52.087 6.8 23 10 98970 41
2010-03-30 07:07:44 51°13.699 2°52.061 7.1 31 10 98970 41
2010-03-30 07:07:49 51°13.689 2°52.035 6.6 26 10 98970 42
2010-03-30 07:07:53 51°13.681 2°52.015 6.6 38 10 98970 42
2010-03-30 07:07:59 51°13.67 2°51.986 6.9 20 10 98970 41
2010-03-30 07:08:04 51°13.661 2°51.962 6.6 32 10 98970 41
2010-03-30 07:08:09 51°13.652 2°51.938 6.6 19 10 98970 42
2010-03-30 07:08:14 51°13.643 2°51.915 5.9 30 10 98970 42
2010-03-30 07:08:19 51°13.635 2°51.891 6 18 10 98960 42
2010-03-30 07:08:25 51°13.624 2°51.863 6.5 32 10 98960 42
2010-03-30 07:08:29 51°13.618 2°51.844 6.3 24 10 98970 41
2010-03-30 07:08:34 51°13.609 2°51.821 6.3 32 10 98970 41
2010-03-30 07:08:39 51°13.601 2°51.798 6.5 20 10 98970 41
2010-03-30 07:08:44 51°13.593 2°51.776 6.3 33 10 98970 41
2010-03-30 07:08:49 51°13.585 2°51.753 6.2 28 10 98970 41
2010-03-30 07:08:54 51°13.577 2°51.73 5.7 31 10 98970 41
2010-03-30 07:08:59 51°13.569 2°51.708 6 24 10 98970 40
2010-03-30 07:09:04 51°13.561 2°51.686 5.7 34 10 98970 40
2010-03-30 07:09:09 51°13.554 2°51.666 6.2 21 9.9 98970 43
2010-03-30 07:09:14 51°13.547 2°51.646 5.4 36 9.9 98970 43
2010-03-30 07:09:19 51°13.54 2°51.627 5.4 24 9.9 98970 43
2010-03-30 07:09:24 51°13.533 2°51.61 5.8 234 9.9 98970 43
2010-03-30 07:09:29 51°13.526 2°51.593 5 24 9.9 98970 40
2010-03-30 07:09:34 51°13.519 2°51.576 5.8 30 9.9 98970 40
2010-03-30 07:09:39 51°13.513 2°51.56 5.9 18 9.9 98970 41
2010-03-30 07:09:44 51°13.506 2°51.545 5.5 240 9.9 98970 41
2010-03-30 07:09:49 51°13.5 2°51.529 5.2 27 9.9 98970 41
2010-03-30 07:09:54 51°13.494 2°51.515 5.2 240 9.9 98970 41
2010-03-30 07:09:59 51°13.488 2°51.501 5.4 23 9.9 98970 41
2010-03-30 07:10:04 51°13.483 2°51.489 5.6 240 9.9 98970 41
2010-03-30 07:10:09 51°13.477 2°51.476 5.8 22 9.9 98970 43
2010-03-30 07:10:14 51°13.472 2°51.465 4.8 241 9.9 98970 43
2010-03-30 07:10:19 51°13.467 2°51.455 5.2 21 9.9 98970 43
2010-03-30 07:10:24 51°13.462 2°51.447 4.2 239 9.9 98970 43
2010-03-30 07:10:29 51°13.458 2°51.439 4.8 21 9.9 98980 43
2010-03-30 07:10:34 51°13.455 2°51.432 4.3 243 9.9 98980 43
2010-03-30 07:10:39 51°13.452 2°51.426 4.6 18 9.9 98980 41
2010-03-30 07:10:44 51°13.449 2°51.421 3.9 247 9.9 98980 41
2010-03-30 07:10:49 51°13.448 2°51.417 4.1 21 9.9 98980 42
2010-03-30 07:10:54 51°13.446 2°51.414 4.7 248 9.9 98980 42
2010-03-30 07:10:59 51°13.446 2°51.411 3.8 248 9.9 98980 41
2010-03-30 07:11:04 51°13.446 2°51.41 2.6 253 9.9 98980 41
2010-03-30 07:11:09 51°13.446 2°51.409 5.6 256 9.9 98980 41
2010-03-30 07:11:14 51°13.446 2°51.408 4.9 259 9.9 98980 41
2010-03-30 07:11:20 51°13.446 2°51.408 4.4 258 9.9 98980 43
2010-03-30 07:11:25 51°13.446 2°51.407 4.4 260 9.9 98980 43
2010-03-30 07:11:31 51°13.446 2°51.406 4.7 258 9.9 98980 42
2010-03-30 07:11:37 51°13.446 2°51.405 4.9 257 9.9 98980 42
2010-03-30 07:11:42 51°13.446 2°51.405 4.3 260 9.9 98980 40
2010-03-30 07:11:48 51°13.446 2°51.404 4.8 261 9.9 98980 40
2010-03-30 07:11:53 51°13.446 2°51.403 5.3 260 9.9 98980 41
2010-03-30 07:11:57 51°13.446 2°51.402 4.8 259 9.9 98980 41
2010-03-30 07:12:02 51°13.446 2°51.401 5.3 258 9.9 98980 42
2010-03-30 07:12:07 51°13.445 2°51.4 2.6 259 9.9 98980 42
2010-03-30 07:12:12 51°13.445 2°51.399 4.1 259 9.9 98980 42
2010-03-30 07:12:17 51°13.445 2°51.398 5.3 256 9.9 98980 42
2010-03-30 07:12:21 51°13.444 2°51.397 5.7 258 9.9 98980 41
2010-03-30 07:12:26 51°13.444 2°51.396 3.6 265 9.9 98980 41
2010-03-30 07:12:31 51°13.444 2°51.395 4.2 260 9.9 98990 41
2010-03-30 07:12:36 51°13.444 2°51.394 5.6 259 9.9 98990 41
2010-03-30 07:12:41 51°13.443 2°51.393 5.5 258 9.8 98980 42
2010-03-30 07:12:45 51°13.443 2°51.392 4.4 258 9.8 98980 42
2010-03-30 07:12:50 51°13.442 2°51.391 4 261 9.9 98980 42
2010-03-30 07:12:55 51°13.442 2°51.39 3.8 260 9.9 98980 42
2010-03-30 07:13:00 51°13.442 2°51.388 4 259 9.9 98980 41
2010-03-30 07:13:05 51°13.441 2°51.387 3.4 262 9.9 98980 41
2010-03-30 07:13:09 51°13.441 2°51.386 3 262 9.9 98980 41
2010-03-30 07:13:14 51°13.441 2°51.384 3.1 260 9.9 98980 41
2010-03-30 07:13:19 51°13.44 2°51.383 3.8 260 9.9 98980 41
2010-03-30 07:13:24 51°13.44 2°51.381 4 261 9.9 98980 41
2010-03-30 07:13:29 51°13.44 2°51.38 3.6 264 9.9 98980 43
2010-03-30 07:13:33 51°13.439 2°51.379 3.7 262 9.9 98980 43
2010-03-30 07:13:39 51°13.439 2°51.377 4.1 261 9.9 98980 43
2010-03-30 07:13:44 51°13.438 2°51.375 4.9 260 9.9 98980 43
2010-03-30 07:13:49 51°13.438 2°51.374 4.5 278 9.8 98980 43
2010-03-30 07:13:54 51°13.437 2°51.372 4.7 259 9.8 98980 43
2010-03-30 07:13:59 51°13.437 2°51.37 3.8 260 9.9 98980 41
2010-03-30 07:14:04 51°13.436 2°51.369 2.3 263 9.9 98980 41
2010-03-30 07:14:09 51°13.436 2°51.367 2.9 262 9.9 98980 43
2010-03-30 07:14:14 51°13.435 2°51.365 3.2 261 9.9 98980 43
2010-03-30 07:14:19 51°13.435 2°51.363 3.7 261 9.8 98980 42
2010-03-30 07:14:24 51°13.434 2°51.362 3.2 264 9.8 98980 42
2010-03-30 07:14:29 51°13.434 2°51.36 3.6 262 9.8 98980 43
2010-03-30 07:14:34 51°13.433 2°51.358 4.3 261 9.8 98980 43
2010-03-30 07:14:39 51°13.433 2°51.356 4.8 260 9.8 98980 43
2010-03-30 07:14:44 51°13.433 2°51.354 2.7 262 9.8 98980 43
2010-03-30 07:14:49 51°13.432 2°51.352 3.8 260 9.8 98980 40
2010-03-30 07:14:54 51°13.432 2°51.35 3.8 263 9.8 98980 40
2010-03-30 07:14:59 51°13.431 2°51.348 3.9 261 9.8 98980 43
2010-03-30 07:15:04 51°13.431 2°51.346 3.5 262 9.8 98980 43
2010-03-30 07:15:09 51°13.43 2°51.344 3.4 264 9.8 98980 43
2010-03-30 07:15:14 51°13.43 2°51.342 4.9 260 9.8 98980 43
2010-03-30 07:15:19 51°13.429 2°51.34 3.6 262 9.8 98980 43
2010-03-30 07:15:24 51°13.429 2°51.338 2.7 262 9.8 98980 43
2010-03-30 07:15:29 51°13.428 2°51.336 3.9 262 9.8 98980 41
2010-03-30 07:15:34 51°13.427 2°51.334 4.1 262 9.8 98980 41
2010-03-30 07:15:40 51°13.427 2°51.331 3.7 264 9.8 98980 41
2010-03-30 07:15:44 51°13.426 2°51.33 4.4 264 9.8 98980 41
2010-03-30 07:15:49 51°13.426 2°51.327 4.2 277 9.8 98980 43
2010-03-30 07:15:54 51°13.425 2°51.325 3.7 264 9.8 98980 43
2010-03-30 07:15:59 51°13.425 2°51.323 3.5 264 9.8 98980 41
2010-03-30 07:16:04 51°13.424 2°51.321 3.4 264 9.8 98980 41
2010-03-30 07:16:09 51°13.424 2°51.318 3.8 261 9.8 98980 41
2010-03-30 07:16:14 51°13.423 2°51.316 5.3 267 9.8 98980 41
2010-03-30 07:16:19 51°13.422 2°51.314 3 263 9.8 98980 43
2010-03-30 07:16:24 51°13.422 2°51.312 4.4 261 9.8 98980 43
2010-03-30 07:16:29 51°13.421 2°51.309 4.4 262 9.8 98980 42
2010-03-30 07:16:34 51°13.421 2°51.307 4.5 264 9.8 98980 42
2010-03-30 07:16:39 51°13.42 2°51.305 4.2 263 9.8 98980 41
2010-03-30 07:16:44 51°13.419 2°51.302 4.5 265 9.8 98980 41
2010-03-30 07:16:49 51°13.419 2°51.3 4.2 265 9.8 98980 41
2010-03-30 07:16:54 51°13.418 2°51.297 3.7 263 9.8 98980 41
2010-03-30 07:16:59 51°13.418 2°51.295 3.5 264 9.8 98980 42
2010-03-30 07:17:04 51°13.417 2°51.293 3.5 265 9.8 98980 42
2010-03-30 07:17:09 51°13.416 2°51.29 4 264 9.8 98980 41
2010-03-30 07:17:14 51°13.416 2°51.288 3.6 267 9.8 98980 41
2010-03-30 07:17:19 51°13.415 2°51.285 3.6 265 9.8 98980 43
2010-03-30 07:17:24 51°13.415 2°51.282 3.8 265 9.8 98980 43
2010-03-30 07:17:29 51°13.414 2°51.28 3.6 264 9.8 98980 42
2010-03-30 07:17:34 51°13.413 2°51.277 3.9 265 9.8 98980 42
2010-03-30 07:17:39 51°13.413 2°51.275 5.2 261 9.8 98980 42
2010-03-30 07:17:44 51°13.412 2°51.272 4.1 265 9.8 98980 42
2010-03-30 07:17:49 51°13.412 2°51.269 3.5 264 9.8 98980 41
2010-03-30 07:17:54 51°13.411 2°51.267 2.8 265 9.8 98980 41
2010-03-30 07:17:59 51°13.411 2°51.264 4.2 265 9.8 98980 43
2010-03-30 07:18:04 51°13.41 2°51.261 3.5 266 9.8 98980 43
2010-03-30 07:18:09 51°13.409 2°51.258 3.6 262 9.8 98980 42
2010-03-30 07:18:14 51°13.409 2°51.256 5 269 9.8 98980 42
2010-03-30 07:18:19 51°13.408 2°51.253 3.8 269 9.8 98980 42
2010-03-30 07:18:24 51°13.407 2°51.25 3.9 264 9.8 98980 42
2010-03-30 07:18:29 51°13.407 2°51.248 4.1 265 9.7 98980 41
2010-03-30 07:18:34 51°13.406 2°51.245 3.4 268 9.7 98980 41
2010-03-30 07:18:39 51°13.406 2°51.242 3.9 266 9.7 98980 41
2010-03-30 07:18:44 51°13.405 2°51.239 4 268 9.7 98980 41
2010-03-30 07:18:49 51°13.404 2°51.236 3.2 265 9.7 98980 43
2010-03-30 07:18:54 51°13.404 2°51.234 3.8 267 9.7 98980 43
2010-03-30 07:18:59 51°13.403 2°51.231 3.8 266 9.7 98980 43
2010-03-30 07:19:04 51°13.403 2°51.228 2.9 265 9.7 98980 43
2010-03-30 07:19:09 51°13.402 2°51.225 3.9 264 9.7 98990 43
2010-03-30 07:19:14 51°13.401 2°51.222 3.6 267 9.7 98990 43
2010-03-30 07:19:19 51°13.401 2°51.219 3.9 266 9.7 98990 41
2010-03-30 07:19:24 51°13.4 2°51.216 3.5 263 9.7 98990 41
2010-03-30 07:19:29 51°13.4 2°51.213 3.3 284 9.7 98980 43
2010-03-30 07:19:34 51°13.399 2°51.21 3.4 263 9.7 98980 43
2010-03-30 07:19:39 51°13.399 2°51.207 4 265 9.7 98980 42
2010-03-30 07:19:44 51°13.398 2°51.204 3.3 266 9.7 98980 42
2010-03-30 07:19:49 51°13.398 2°51.201 3.4 265 9.7 98990 41
2010-03-30 07:19:54 51°13.397 2°51.199 4.5 269 9.7 98990 41
2010-03-30 07:20:00 51°13.396 2°51.195 3.6 266 9.7 98980 43
2010-03-30 07:20:04 51°13.396 2°51.192 3.7 266 9.7 98980 43
2010-03-30 07:20:09 51°13.395 2°51.189 4.4 267 9.7 98990 42
2010-03-30 07:20:14 51°13.395 2°51.186 3.1 266 9.7 98990 42
2010-03-30 07:20:19 51°13.394 2°51.183 4.3 268 9.7 98980 43
2010-03-30 07:20:24 51°13.393 2°51.18 3.5 265 9.7 98980 43
2010-03-30 07:20:29 51°13.393 2°51.177 4 265 9.7 98980 43
2010-03-30 07:20:34 51°13.392 2°51.174 3.4 263 9.7 98980 43
2010-03-30 07:20:39 51°13.392 2°51.171 3.1 265 9.7 98990 41
2010-03-30 07:20:44 51°13.391 2°51.168 3.6 263 9.7 98990 41
2010-03-30 07:20:49 51°13.39 2°51.165 4.6 284 9.7 98990 41
2010-03-30 07:20:54 51°13.39 2°51.161 3.9 264 9.7 98990 41
2010-03-30 07:20:59 51°13.389 2°51.158 2.8 264 9.7 98980 43
2010-03-30 07:21:04 51°13.389 2°51.155 3.6 263 9.7 98980 43
2010-03-30 07:21:09 51°13.388 2°51.152 2.8 264 9.7 98990 42
2010-03-30 07:21:14 51°13.387 2°51.149 4.1 265 9.7 98990 42
2010-03-30 07:21:19 51°13.387 2°51.145 3.2 264 9.7 98990 41
2010-03-30 07:21:24 51°13.386 2°51.142 4.1 263 9.7 98990 41
2010-03-30 07:21:29 51°13.385 2°51.139 2.7 282 9.7 98980 41
2010-03-30 07:21:34 51°13.385 2°51.135 4 261 9.7 98980 41
2010-03-30 07:21:39 51°13.384 2°51.132 5.1 261 9.7 98990 41
2010-03-30 07:21:44 51°13.384 2°51.129 3.9 266 9.7 98990 41
2010-03-30 07:21:49 51°13.383 2°51.125 3.5 281 9.7 98980 41
2010-03-30 07:21:54 51°13.382 2°51.122 5.2 260 9.7 98980 41
2010-03-30 07:21:59 51°13.381 2°51.118 5.5 261 9.7 98990 41
2010-03-30 07:22:04 51°13.38 2°51.113 4.9 259 9.7 98990 41
2010-03-30 07:22:09 51°13.379 2°51.109 5.9 257 9.7 98980 41
2010-03-30 07:22:14 51°13.378 2°51.103 6.2 257 9.7 98980 41
2010-03-30 07:22:20 51°13.375 2°51.096 6.1 252 9.7 98990 43
2010-03-30 07:22:24 51°13.374 2°51.091 6.8 243 9.7 98990 43
2010-03-30 07:22:29 51°13.371 2°51.085 6.4 28 9.7 98980 43
2010-03-30 07:22:34 51°13.368 2°51.079 6.3 239 9.7 98980 43
2010-03-30 07:22:39 51°13.365 2°51.072 6.1 24 9.7 98980 43
2010-03-30 07:22:44 51°13.361 2°51.067 6.9 232 9.7 98980 43
2010-03-30 07:22:49 51°13.357 2°51.061 6.5 28 9.7 98980 41
2010-03-30 07:22:54 51°13.352 2°51.056 6 35 9.7 98980 41
2010-03-30 07:22:59 51°13.347 2°51.051 6.2 27 9.7 98970 43
2010-03-30 07:23:04 51°13.343 2°51.047 6.9 317 9.7 98970 43
2010-03-30 07:23:09 51°13.337 2°51.044 7.1 318 9.7 98970 41
2010-03-30 07:23:14 51°13.332 2°51.041 6.7 320 9.7 98970 41
2010-03-30 07:23:19 51°13.326 2°51.039 6.5 322 9.7 98970 42
2010-03-30 07:23:24 51°13.321 2°51.037 6.5 327 9.7 98970 42
2010-03-30 07:23:29 51°13.316 2°51.036 6.8 283 9.7 98970 41
2010-03-30 07:23:34 51°13.31 2°51.036 7.2 335 9.7 98970 41
2010-03-30 07:23:39 51°13.305 2°51.037 6 332 9.7 98970 41
2010-03-30 07:23:44 51°13.3 2°51.038 6.7 336 9.7 98970 41
2010-03-30 07:23:49 51°13.295 2°51.04 6.9 283 9.7 98970 41
2010-03-30 07:23:54 51°13.291 2°51.043 6.7 342 9.7 98970 41
2010-03-30 07:23:59 51°13.287 2°51.046 6.8 342 9.7 98980 42
2010-03-30 07:24:04 51°13.283 2°51.05 7 347 9.7 98980 42
2010-03-30 07:24:09 51°13.279 2°51.054 6.3 349 9.7 98980 43
2010-03-30 07:24:14 51°13.276 2°51.058 7 351 9.7 98980 43
2010-03-30 07:24:19 51°13.274 2°51.063 7 351 9.8 98970 43
2010-03-30 07:24:24 51°13.272 2°51.068 6.8 357 9.8 98970 43
2010-03-30 07:24:29 51°13.271 2°51.073 6.9 358 9.7 98970 42
2010-03-30 07:24:34 51°13.27 2°51.079 5.5 4 9.7 98970 42
2010-03-30 07:24:40 51°13.27 2°51.085 5.8 3 9.8 98970 41
2010-03-30 07:24:44 51°13.27 2°51.088 6.2 8 9.8 98970 41
2010-03-30 07:24:49 51°13.271 2°51.093 7 11 9.8 98960 42
2010-03-30 07:24:54 51°13.273 2°51.097 6 17 9.8 98960 42
2010-03-30 07:24:59 51°13.275 2°51.101 6.4 20 9.8 98960 41
2010-03-30 07:25:04 51°13.278 2°51.104 5.3 22 9.8 98960 41
2010-03-30 07:25:09 51°13.28 2°51.107 5 23 9.8 98960 41
2010-03-30 07:25:14 51°13.284 2°51.11 5 23 9.8 98960 41
2010-03-30 07:25:19 51°13.288 2°51.113 4.9 25 9.8 98960 43
2010-03-30 07:25:24 51°13.292 2°51.116 4.6 19 9.8 98960 43
2010-03-30 07:25:29 51°13.296 2°51.12 5.2 18 9.8 98970 40
2010-03-30 07:25:34 51°13.301 2°51.124 5.9 16 9.8 98970 40
2010-03-30 07:25:39 51°13.306 2°51.129 5.5 12 9.8 98980 43
2010-03-30 07:25:44 51°13.311 2°51.135 5.7 14 9.8 98980 43
2010-03-30 07:25:49 51°13.317 2°51.141 6 12 9.8 98970 43
2010-03-30 07:25:54 51°13.323 2°51.149 6 13 9.8 98970 43
2010-03-30 07:25:59 51°13.33 2°51.157 6 9 9.7 98970 42
2010-03-30 07:26:04 51°13.336 2°51.166 5.5 8 9.7 98970 42
2010-03-30 07:26:09 51°13.342 2°51.175 4.7 5 9.8 98970 41
2010-03-30 07:26:14 51°13.348 2°51.186 4.3 6 9.8 98970 41
2010-03-30 07:26:19 51°13.354 2°51.197 5.4 2 9.8 98970 42
2010-03-30 07:26:24 51°13.36 2°51.209 5.2 6 9.8 98970 42
2010-03-30 07:26:29 51°13.366 2°51.22 6.4 2 9.8 98970 44
2010-03-30 07:26:34 51°13.371 2°51.233 6.2 2 9.8 98970 44
2010-03-30 07:26:39 51°13.376 2°51.246 6.2 360 9.8 98970 44
2010-03-30 07:26:44 51°13.382 2°51.259 6.8 2 9.8 98970 44
2010-03-30 07:26:49 51°13.387 2°51.273 6.2 2 9.7 98970 41
2010-03-30 07:26:54 51°13.392 2°51.287 6.1 359 9.7 98970 41
2010-03-30 07:26:59 51°13.397 2°51.301 5.9 -999 9.8 98970 42
2010-03-30 07:27:04 51°13.402 2°51.315 6.4 2 9.8 98970 42
2010-03-30 07:27:09 51°13.407 2°51.329 6.8 1 9.8 98970 43
2010-03-30 07:27:14 51°13.411 2°51.344 8.6 -999 9.8 98970 43
2010-03-30 07:27:19 51°13.416 2°51.358 7.3 3 9.8 98970 43
2010-03-30 07:27:24 51°13.421 2°51.373 6.8 3 9.8 98970 43
2010-03-30 07:27:29 51°13.426 2°51.387 6.8 5 9.7 98970 43
2010-03-30 07:27:34 51°13.432 2°51.401 6.2 2 9.7 98970 43
2010-03-30 07:27:39 51°13.438 2°51.415 6.3 2 9.7 98970 40
2010-03-30 07:27:44 51°13.443 2°51.429 6.4 2 9.7 98970 40
2010-03-30 07:27:49 51°13.449 2°51.443 6.2 1 9.7 98970 41
2010-03-30 07:27:54 51°13.455 2°51.457 6.4 9 9.7 98970 41
2010-03-30 07:27:59 51°13.462 2°51.47 6.5 7 9.7 98970 41
2010-03-30 07:28:04 51°13.468 2°51.483 6.8 4 9.7 98970 41
2010-03-30 07:28:09 51°13.474 2°51.497 5.5 4 9.7 98970 43
2010-03-30 07:28:14 51°13.481 2°51.509 6.3 8 9.7 98970 43
2010-03-30 07:28:19 51°13.488 2°51.521 6.1 8 9.7 98970 42
2010-03-30 07:28:24 51°13.494 2°51.532 6.6 11 9.7 98970 42
2010-03-30 07:28:29 51°13.5 2°51.541 7 10 9.7 98970 43
2010-03-30 07:28:34 51°13.505 2°51.549 5.6 14 9.7 98970 43
2010-03-30 07:28:39 51°13.511 2°51.557 5.6 15 9.7 98970 44
2010-03-30 07:28:44 51°13.517 2°51.563 6.1 15 9.7 98970 44
2010-03-30 07:28:49 51°13.522 2°51.567 5.7 21 9.8 98970 41
2010-03-30 07:28:54 51°13.527 2°51.571 3.9 25 9.8 98970 41
2010-03-30 07:28:59 51°13.532 2°51.574 5.1 26 9.8 98970 44
2010-03-30 07:29:04 51°13.536 2°51.576 4.6 34 9.8 98970 44
2010-03-30 07:29:09 51°13.541 2°51.576 4.9 35 9.8 98970 41
2010-03-30 07:29:14 51°13.545 2°51.576 4.6 35 9.8 98970 41
2010-03-30 07:29:19 51°13.549 2°51.575 4 41 9.8 98970 44
2010-03-30 07:29:24 51°13.552 2°51.574 4.4 39 9.8 98970 44
2010-03-30 07:29:29 51°13.555 2°51.572 4.9 80 9.8 98980 42
2010-03-30 07:29:34 51°13.558 2°51.57 4.8 39 9.8 98980 42
2010-03-30 07:29:39 51°13.56 2°51.567 4.4 26 9.8 98970 41
2010-03-30 07:29:44 51°13.562 2°51.564 4.6 32 9.8 98970 41
2010-03-30 07:29:49 51°13.563 2°51.561 4 75 9.8 98980 41
2010-03-30 07:29:54 51°13.565 2°51.557 2.6 33 9.8 98980 41
2010-03-30 07:29:59 51°13.565 2°51.554 3.4 20 9.8 98980 41
2010-03-30 07:30:04 51°13.566 2°51.551 3.3 35 9.8 98980 41
2010-03-30 07:30:09 51°13.567 2°51.547 2.5 25 9.8 98970 41
2010-03-30 07:30:14 51°13.568 2°51.543 4.5 40 9.8 98970 41
2010-03-30 07:30:19 51°13.568 2°51.54 4.1 76 9.8 98970 43
2010-03-30 07:30:24 51°13.568 2°51.536 3.6 36 9.8 98970 43
2010-03-30 07:30:29 51°13.569 2°51.532 2.9 21 9.9 98970 42
2010-03-30 07:30:34 51°13.569 2°51.528 4.8 32 9.9 98970 42
2010-03-30 07:30:39 51°13.57 2°51.525 4.4 25 9.9 98980 43
2010-03-30 07:30:44 51°13.57 2°51.521 4.6 38 9.9 98980 43
2010-03-30 07:30:49 51°13.57 2°51.517 4.6 20 9.9 98980 40
2010-03-30 07:30:54 51°13.571 2°51.512 4.6 34 9.9 98980 40
2010-03-30 07:30:59 51°13.571 2°51.508 4.7 24 9.9 98980 44
2010-03-30 07:31:04 51°13.571 2°51.504 4.8 38 9.9 98980 44
2010-03-30 07:31:09 51°13.571 2°51.5 4.4 26 9.9 98990 44
2010-03-30 07:31:14 51°13.571 2°51.495 5.4 39 9.9 98990 44
2010-03-30 07:31:19 51°13.571 2°51.491 5.4 23 9.9 98980 44
2010-03-30 07:31:24 51°13.571 2°51.487 4.7 37 9.9 98980 44
2010-03-30 07:31:29 51°13.571 2°51.483 5.6 25 9.9 98980 42
2010-03-30 07:31:34 51°13.571 2°51.479 5 39 9.9 98980 42
2010-03-30 07:31:39 51°13.572 2°51.475 4.6 22 9.9 98980 43
2010-03-30 07:31:44 51°13.572 2°51.471 5.7 33 9.9 98980 43
2010-03-30 07:31:49 51°13.572 2°51.467 4.4 74 9.9 98980 44
2010-03-30 07:31:54 51°13.572 2°51.463 5.4 33 9.9 98980 44
2010-03-30 07:31:59 51°13.572 2°51.459 5 25 9.9 98980 42
2010-03-30 07:32:04 51°13.572 2°51.455 5.3 33 9.9 98980 42
2010-03-30 07:32:09 51°13.572 2°51.45 4.4 22 9.9 98980 43
2010-03-30 07:32:14 51°13.572 2°51.446 5.1 38 9.9 98980 43
2010-03-30 07:32:19 51°13.572 2°51.442 4.7 19 9.9 98980 44
2010-03-30 07:32:24 51°13.572 2°51.438 4.4 32 9.9 98980 44
2010-03-30 07:32:29 51°13.572 2°51.434 4.7 22 9.9 98980 42
2010-03-30 07:32:34 51°13.572 2°51.43 4.4 31 9.9 98980 42
2010-03-30 07:32:39 51°13.572 2°51.426 2.6 25 9.9 98980 44
2010-03-30 07:32:44 51°13.572 2°51.422 5.1 32 9.9 98980 44
2010-03-30 07:32:49 51°13.572 2°51.418 5.2 26 9.9 98980 41
2010-03-30 07:32:54 51°13.572 2°51.414 5.2 33 9.9 98980 41
2010-03-30 07:32:59 51°13.572 2°51.41 5.1 26 9.9 98980 42
2010-03-30 07:33:04 51°13.572 2°51.405 5.1 35 9.9 98980 42
2010-03-30 07:33:09 51°13.572 2°51.402 4.7 25 9.9 98980 41
2010-03-30 07:33:14 51°13.571 2°51.397 5.1 32 9.9 98980 41
2010-03-30 07:33:19 51°13.571 2°51.393 5.8 28 9.9 98980 43
2010-03-30 07:33:24 51°13.571 2°51.389 5.4 33 9.9 98980 43
2010-03-30 07:33:29 51°13.571 2°51.385 6.3 21 9.9 98980 40
2010-03-30 07:33:34 51°13.571 2°51.381 5.5 12 9.9 98980 40
2010-03-30 07:33:39 51°13.571 2°51.377 5.2 21 9.9 98980 42
2010-03-30 07:33:44 51°13.571 2°51.373 6.3 34 9.9 98980 42
2010-03-30 07:33:49 51°13.571 2°51.369 6.5 23 9.9 98980 41
2010-03-30 07:33:54 51°13.57 2°51.365 5.7 32 9.9 98980 41
2010-03-30 07:33:59 51°13.57 2°51.361 5.8 22 9.9 98980 43
2010-03-30 07:34:04 51°13.57 2°51.357 5 268 9.9 98980 43
2010-03-30 07:34:09 51°13.57 2°51.354 4.7 21 9.9 98980 41
2010-03-30 07:34:14 51°13.57 2°51.35 4.9 31 9.9 98980 41
2010-03-30 07:34:19 51°13.569 2°51.346 5 27 9.9 98980 41
2010-03-30 07:34:24 51°13.569 2°51.342 4.2 329 9.9 98980 41
2010-03-30 07:34:29 51°13.569 2°51.339 4.5 270 9.9 98980 41
2010-03-30 07:34:34 51°13.569 2°51.335 4.4 41 9.9 98980 41
2010-03-30 07:34:39 51°13.568 2°51.332 5 31 9.9 98980 41
2010-03-30 07:34:44 51°13.568 2°51.329 4.6 268 9.9 98980 41
2010-03-30 07:34:49 51°13.567 2°51.326 6 30 9.9 98980 44
2010-03-30 07:34:54 51°13.567 2°51.323 5.6 38 9.9 98980 44
2010-03-30 07:34:59 51°13.566 2°51.32 6.1 27 9.9 98980 41
2010-03-30 07:35:04 51°13.566 2°51.317 5.6 38 9.9 98980 41
2010-03-30 07:35:09 51°13.565 2°51.314 5.5 29 9.8 98980 42
2010-03-30 07:35:14 51°13.565 2°51.311 5.1 36 9.8 98980 42
2010-03-30 07:35:19 51°13.564 2°51.309 6.3 269 9.8 98980 41
2010-03-30 07:35:24 51°13.564 2°51.306 5.4 270 9.8 98980 41
2010-03-30 07:35:29 51°13.563 2°51.304 5.7 74 9.8 98990 41
2010-03-30 07:35:34 51°13.563 2°51.302 4.6 270 9.8 98990 41
2010-03-30 07:35:39 51°13.563 2°51.3 5.6 270 9.8 98980 42
2010-03-30 07:35:44 51°13.562 2°51.298 5.1 40 9.8 98980 42
2010-03-30 07:35:49 51°13.562 2°51.296 5.3 30 9.8 98990 43
2010-03-30 07:35:54 51°13.561 2°51.294 5.8 32 9.8 98990 43
2010-03-30 07:35:59 51°13.56 2°51.293 5.7 26 9.8 98980 44
2010-03-30 07:36:04 51°13.56 2°51.291 5.4 270 9.8 98980 44
2010-03-30 07:36:09 51°13.559 2°51.29 5.8 269 9.8 98980 43
2010-03-30 07:36:14 51°13.559 2°51.288 5.7 270 9.8 98980 43
2010-03-30 07:36:19 51°13.558 2°51.287 5.6 270 9.8 98980 44
2010-03-30 07:36:24 51°13.557 2°51.285 4.7 41 9.8 98980 44
2010-03-30 07:36:29 51°13.557 2°51.284 4.5 268 9.8 98980 41
2010-03-30 07:36:34 51°13.556 2°51.282 4.4 270 9.8 98980 41
2010-03-30 07:36:39 51°13.556 2°51.281 4.6 266 9.8 98980 41
2010-03-30 07:36:44 51°13.555 2°51.279 5.1 270 9.8 98980 41
2010-03-30 07:36:49 51°13.555 2°51.278 5.2 270 9.8 98980 41
2010-03-30 07:36:54 51°13.554 2°51.276 4.1 271 9.8 98980 41
2010-03-30 07:36:59 51°13.554 2°51.275 4.5 266 9.8 98980 42
2010-03-30 07:37:04 51°13.553 2°51.274 4.5 270 9.8 98980 42
2010-03-30 07:37:09 51°13.553 2°51.272 4.8 29 9.8 98980 41
2010-03-30 07:37:14 51°13.552 2°51.27 4.9 270 9.8 98980 41
2010-03-30 07:37:19 51°13.552 2°51.269 5.1 270 9.8 98970 44
2010-03-30 07:37:24 51°13.551 2°51.267 5.3 37 9.8 98970 44
2010-03-30 07:37:29 51°13.55 2°51.266 4.3 269 9.8 98980 41
2010-03-30 07:37:34 51°13.55 2°51.264 5.1 14 9.8 98980 41
2010-03-30 07:37:39 51°13.549 2°51.263 5.1 14 9.8 98970 44
2010-03-30 07:37:44 51°13.549 2°51.261 5.4 270 9.8 98970 44
2010-03-30 07:37:49 51°13.548 2°51.26 5.5 280 9.8 98980 44
2010-03-30 07:37:54 51°13.548 2°51.258 5.2 270 9.8 98980 44
2010-03-30 07:38:00 51°13.547 2°51.256 5.2 270 9.8 98970 44
2010-03-30 07:38:04 51°13.547 2°51.255 5 31 9.8 98970 44
2010-03-30 07:38:09 51°13.546 2°51.253 5.6 26 9.8 98980 42
2010-03-30 07:38:14 51°13.546 2°51.252 4.8 36 9.8 98980 42
2010-03-30 07:38:19 51°13.545 2°51.25 4.7 270 9.7 98980 44
2010-03-30 07:38:24 51°13.545 2°51.248 4.9 270 9.7 98980 44
2010-03-30 07:38:29 51°13.545 2°51.246 4.7 270 9.7 98980 41
2010-03-30 07:38:34 51°13.544 2°51.244 4.9 270 9.7 98980 41
2010-03-30 07:38:39 51°13.544 2°51.241 4.5 269 9.7 98980 41
2010-03-30 07:38:44 51°13.543 2°51.237 4.1 263 9.7 98980 41
2010-03-30 07:38:49 51°13.543 2°51.232 4.1 263 9.8 98980 42
2010-03-30 07:38:54 51°13.542 2°51.227 5.9 260 9.8 98980 42
2010-03-30 07:38:59 51°13.541 2°51.22 7.8 255 9.8 98970 44
2010-03-30 07:39:04 51°13.539 2°51.214 6.7 246 9.8 98970 44
2010-03-30 07:39:09 51°13.537 2°51.207 7 20 9.8 98980 42
2010-03-30 07:39:14 51°13.534 2°51.2 7.4 244 9.8 98980 42
2010-03-30 07:39:19 51°13.531 2°51.193 7 20 9.8 98980 41
2010-03-30 07:39:24 51°13.528 2°51.187 6.3 238 9.8 98980 41
2010-03-30 07:39:29 51°13.524 2°51.18 7.2 20 9.8 98980 42
2010-03-30 07:39:34 51°13.519 2°51.174 7.9 34 9.8 98980 42
2010-03-30 07:39:39 51°13.514 2°51.169 8.1 25 9.8 98970 43
2010-03-30 07:39:44 51°13.509 2°51.164 6.3 34 9.8 98970 43
2010-03-30 07:39:49 51°13.503 2°51.16 6.8 319 9.8 98960 41
2010-03-30 07:39:54 51°13.497 2°51.156 7.5 323 9.8 98960 41
2010-03-30 07:39:59 51°13.49 2°51.153 6.6 321 9.8 98960 42
2010-03-30 07:40:04 51°13.483 2°51.151 8.8 325 9.8 98960 42
2010-03-30 07:40:09 51°13.476 2°51.149 8.5 322 9.8 98960 42
2010-03-30 07:40:14 51°13.47 2°51.148 6.6 326 9.8 98960 42
2010-03-30 07:40:19 51°13.463 2°51.148 6.6 326 9.8 98960 44
2010-03-30 07:40:24 51°13.456 2°51.149 7.1 333 9.8 98960 44
2010-03-30 07:40:29 51°13.45 2°51.151 7.9 333 9.8 98960 41
2010-03-30 07:40:34 51°13.444 2°51.153 6.7 339 9.8 98960 41
2010-03-30 07:40:39 51°13.438 2°51.157 7.6 342 9.8 98960 42
2010-03-30 07:40:44 51°13.432 2°51.162 7.4 347 9.8 98960 42
2010-03-30 07:40:49 51°13.428 2°51.168 6.9 350 9.8 98960 44
2010-03-30 07:40:54 51°13.424 2°51.175 7 353 9.8 98960 44
2010-03-30 07:40:59 51°13.421 2°51.182 6.4 352 9.8 98960 44
2010-03-30 07:41:04 51°13.419 2°51.19 7.8 2 9.8 98960 44
2010-03-30 07:41:09 51°13.418 2°51.199 6.9 2 9.8 98960 44
2010-03-30 07:41:14 51°13.418 2°51.208 7.4 4 9.8 98960 44
2010-03-30 07:41:19 51°13.418 2°51.217 6.3 6 9.8 98960 43
2010-03-30 07:41:24 51°13.419 2°51.226 6.6 6 9.8 98960 43
2010-03-30 07:41:29 51°13.421 2°51.236 6.6 5 9.8 98950 41
2010-03-30 07:41:34 51°13.424 2°51.245 6.8 10 9.8 98950 41
2010-03-30 07:41:39 51°13.427 2°51.255 7.1 17 9.8 98950 42
2010-03-30 07:41:44 51°13.431 2°51.264 7.1 11 9.8 98950 42
2010-03-30 07:41:49 51°13.436 2°51.273 6.3 13 9.8 98960 43
2010-03-30 07:41:54 51°13.44 2°51.282 6.3 12 9.8 98960 43
2010-03-30 07:41:59 51°13.446 2°51.291 6.3 12 9.8 98960 43
2010-03-30 07:42:04 51°13.451 2°51.299 6.2 18 9.8 98960 43
2010-03-30 07:42:09 51°13.457 2°51.308 5.9 15 9.8 98960 41
2010-03-30 07:42:14 51°13.464 2°51.317 6.1 17 9.8 98960 41
2010-03-30 07:42:19 51°13.47 2°51.326 6.5 16 9.8 98960 42
2010-03-30 07:42:24 51°13.476 2°51.335 6 12 9.8 98960 42
2010-03-30 07:42:29 51°13.482 2°51.345 6.4 11 9.8 98960 43
2010-03-30 07:42:34 51°13.488 2°51.355 6 9 9.8 98960 43
2010-03-30 07:42:39 51°13.493 2°51.366 6.9 8 9.8 98960 42
2010-03-30 07:42:44 51°13.497 2°51.377 5.7 7 9.8 98960 42
2010-03-30 07:42:49 51°13.5 2°51.388 5.8 6 9.8 98960 42
2010-03-30 07:42:54 51°13.503 2°51.398 6.4 7 9.8 98960 42
2010-03-30 07:42:59 51°13.504 2°51.408 5.5 5 9.8 98960 41
2010-03-30 07:43:04 51°13.505 2°51.417 6.3 4 9.8 98960 41
2010-03-30 07:43:09 51°13.506 2°51.426 6.1 4 9.8 98960 43
2010-03-30 07:43:14 51°13.506 2°51.434 6 3 9.8 98960 43
2010-03-30 07:43:19 51°13.505 2°51.441 5.1 4 9.8 98960 42
2010-03-30 07:43:24 51°13.504 2°51.448 6.3 -999 9.8 98960 42
2010-03-30 07:43:29 51°13.503 2°51.455 6.4 1 9.8 98960 43
2010-03-30 07:43:34 51°13.502 2°51.46 7.1 359 9.8 98960 43
2010-03-30 07:43:39 51°13.501 2°51.465 7.8 360 9.8 98960 41
2010-03-30 07:43:44 51°13.499 2°51.47 7 1 9.8 98960 41
2010-03-30 07:43:49 51°13.497 2°51.473 7 1 9.8 98960 42
2010-03-30 07:43:54 51°13.496 2°51.476 6.2 355 9.8 98960 42
2010-03-30 07:43:59 51°13.494 2°51.478 7.4 354 9.8 98960 43
2010-03-30 07:44:04 51°13.492 2°51.48 7.1 350 9.8 98960 43
2010-03-30 07:44:09 51°13.49 2°51.481 7 353 9.8 98960 42
2010-03-30 07:44:14 51°13.488 2°51.482 6.6 348 9.8 98960 42
2010-03-30 07:44:19 51°13.486 2°51.482 6.5 279 9.8 98960 42
2010-03-30 07:44:24 51°13.484 2°51.482 6.2 349 9.8 98960 42
2010-03-30 07:44:29 51°13.482 2°51.482 6.3 347 9.8 98960 42
2010-03-30 07:44:34 51°13.481 2°51.48 6.5 345 9.8 98960 42
2010-03-30 07:44:39 51°13.479 2°51.479 6.4 345 9.8 98970 42
2010-03-30 07:44:44 51°13.478 2°51.478 6 346 9.8 98970 42
2010-03-30 07:44:49 51°13.477 2°51.477 5.9 284 9.8 98960 43
2010-03-30 07:44:54 51°13.475 2°51.475 6.2 342 9.8 98960 43
2010-03-30 07:44:59 51°13.474 2°51.474 6.6 344 9.8 98960 44
2010-03-30 07:45:04 51°13.472 2°51.472 5.9 339 9.8 98960 44
2010-03-30 07:45:09 51°13.471 2°51.471 4.9 340 9.8 98960 42
2010-03-30 07:45:14 51°13.469 2°51.469 6.4 340 9.8 98960 42
2010-03-30 07:45:19 51°13.468 2°51.467 6.5 339 9.8 98960 43
2010-03-30 07:45:24 51°13.467 2°51.465 6.3 339 9.8 98960 43
2010-03-30 07:45:29 51°13.465 2°51.464 6.6 341 9.8 98960 42
2010-03-30 07:45:34 51°13.464 2°51.462 6.3 338 9.8 98960 42
2010-03-30 07:45:39 51°13.462 2°51.459 6.7 342 9.8 98970 41
2010-03-30 07:45:44 51°13.461 2°51.457 5.8 337 9.8 98970 41
2010-03-30 07:45:49 51°13.46 2°51.456 6.5 339 9.8 98970 41
2010-03-30 07:45:54 51°13.458 2°51.453 6.2 338 9.8 98970 41
2010-03-30 07:45:59 51°13.457 2°51.451 5.8 278 9.8 98970 44
2010-03-30 07:46:04 51°13.456 2°51.449 6.5 338 9.8 98970 44
2010-03-30 07:46:09 51°13.455 2°51.447 5.8 341 9.8 98960 43
2010-03-30 07:46:14 51°13.454 2°51.445 6 333 9.8 98960 43
2010-03-30 07:46:19 51°13.453 2°51.443 4.8 284 9.8 98970 44
2010-03-30 07:46:24 51°13.451 2°51.44 5.2 336 9.8 98970 44
2010-03-30 07:46:29 51°13.45 2°51.438 4.7 335 9.9 98960 42
2010-03-30 07:46:34 51°13.449 2°51.435 6.4 335 9.9 98960 42
2010-03-30 07:46:39 51°13.448 2°51.433 5.4 281 9.9 98970 44
2010-03-30 07:46:44 51°13.447 2°51.43 6.8 331 9.9 98970 44
2010-03-30 07:46:49 51°13.446 2°51.428 6.8 335 9.8 98970 41
2010-03-30 07:46:54 51°13.445 2°51.425 5.8 331 9.8 98970 41
2010-03-30 07:46:59 51°13.444 2°51.423 6.4 333 9.9 98970 42
2010-03-30 07:47:04 51°13.443 2°51.42 6.2 339 9.9 98970 42
2010-03-30 07:47:09 51°13.442 2°51.417 6 339 9.9 98960 44
2010-03-30 07:47:14 51°13.441 2°51.415 5.8 335 9.9 98960 44
2010-03-30 07:47:19 51°13.44 2°51.413 6.5 336 9.9 98960 44
2010-03-30 07:47:25 51°13.439 2°51.41 6.5 333 9.9 98960 44
2010-03-30 07:47:29 51°13.438 2°51.407 5.3 280 9.9 98960 42
2010-03-30 07:47:34 51°13.437 2°51.405 5.3 332 9.9 98960 42
2010-03-30 07:47:39 51°13.436 2°51.402 5.4 330 9.9 98970 42
2010-03-30 07:47:44 51°13.435 2°51.399 4.9 330 9.9 98970 42
2010-03-30 07:47:49 51°13.434 2°51.396 5.1 331 9.9 98970 44
2010-03-30 07:47:54 51°13.434 2°51.394 6.7 330 9.9 98970 44
2010-03-30 07:47:59 51°13.433 2°51.391 6.6 333 9.9 98960 42
2010-03-30 07:48:04 51°13.432 2°51.387 6.6 332 9.9 98960 42
2010-03-30 07:48:09 51°13.431 2°51.384 6.5 332 9.9 98970 42
2010-03-30 07:48:14 51°13.431 2°51.381 6.3 331 9.9 98970 42
2010-03-30 07:48:19 51°13.43 2°51.378 6.2 330 9.9 98970 44
2010-03-30 07:48:24 51°13.429 2°51.375 7 330 9.9 98970 44
2010-03-30 07:48:29 51°13.428 2°51.372 6.8 333 9.9 98970 44
2010-03-30 07:48:34 51°13.428 2°51.369 7.2 334 9.9 98970 44
2010-03-30 07:48:39 51°13.427 2°51.366 7.7 278 9.9 98970 42
2010-03-30 07:48:44 51°13.426 2°51.363 6.7 333 9.9 98970 42
2010-03-30 07:48:49 51°13.426 2°51.359 6.7 285 9.9 98970 42
2010-03-30 07:48:54 51°13.425 2°51.356 6.8 330 9.9 98970 42
2010-03-30 07:48:59 51°13.425 2°51.353 7 279 9.9 98970 44
2010-03-30 07:49:04 51°13.424 2°51.35 6.8 330 9.9 98970 44
2010-03-30 07:49:09 51°13.423 2°51.347 6.2 329 9.9 98970 43
2010-03-30 07:49:14 51°13.423 2°51.344 6.5 330 9.9 98970 43
2010-03-30 07:49:19 51°13.422 2°51.341 7 332 9.9 98970 44
2010-03-30 07:49:24 51°13.421 2°51.338 6.6 329 9.9 98970 44
2010-03-30 07:49:29 51°13.421 2°51.335 6.5 326 9.9 98970 43
2010-03-30 07:49:34 51°13.421 2°51.331 6.1 325 9.9 98970 43
2010-03-30 07:49:39 51°13.42 2°51.328 6.4 329 9.9 98970 42
2010-03-30 07:49:44 51°13.42 2°51.324 5.8 328 9.9 98970 42
2010-03-30 07:49:49 51°13.419 2°51.321 5.2 284 9.9 98970 43
2010-03-30 07:49:54 51°13.419 2°51.318 5.7 327 9.9 98970 43
2010-03-30 07:49:59 51°13.419 2°51.316 5.8 280 9.9 98970 42
2010-03-30 07:50:04 51°13.418 2°51.313 5.6 329 9.9 98970 42
2010-03-30 07:50:09 51°13.417 2°51.31 5.9 -999 9.9 98960 44
2010-03-30 07:50:13 51°13.417 2°51.308 5.8 329 9.9 98960 44
2010-03-30 07:50:19 51°13.417 2°51.304 5.7 286 9.9 98970 42
2010-03-30 07:50:24 51°13.416 2°51.301 5.6 329 9.9 98970 42
2010-03-30 07:50:29 51°13.416 2°51.298 4.5 285 9.9 98970 42
2010-03-30 07:50:34 51°13.416 2°51.295 5 325 9.9 98970 42
2010-03-30 07:50:39 51°13.415 2°51.291 5.2 278 9.9 98970 42
2010-03-30 07:50:44 51°13.415 2°51.288 5.6 327 9.9 98970 42
2010-03-30 07:50:49 51°13.415 2°51.285 6.1 285 9.9 98970 44
2010-03-30 07:50:54 51°13.414 2°51.282 5.4 325 9.9 98970 44
2010-03-30 07:50:59 51°13.414 2°51.279 5.4 278 9.9 98960 43
2010-03-30 07:51:04 51°13.414 2°51.276 5.1 321 9.9 98960 43
2010-03-30 07:51:09 51°13.413 2°51.272 5.9 279 9.9 98970 42
2010-03-30 07:51:14 51°13.413 2°51.269 6 327 9.9 98970 42
2010-03-30 07:51:19 51°13.413 2°51.266 5.3 285 9.9 98960 42
2010-03-30 07:51:24 51°13.413 2°51.263 5.5 319 9.9 98960 42
2010-03-30 07:51:29 51°13.413 2°51.26 5.9 286 9.9 98960 44
2010-03-30 07:51:34 51°13.412 2°51.257 5.6 324 9.9 98960 44
2010-03-30 07:51:39 51°13.412 2°51.253 6.4 283 9.9 98960 41
2010-03-30 07:51:44 51°13.412 2°51.25 6.1 316 9.9 98960 43
2010-03-30 07:51:49 51°13.412 2°51.247 5.6 279 9.9 98960 43
2010-03-30 07:51:54 51°13.412 2°51.244 5.9 318 9.9 98960 43
2010-03-30 07:51:59 51°13.411 2°51.241 6 285 9.9 98970 42
2010-03-30 07:52:04 51°13.411 2°51.238 5.7 317 9.9 98970 42
2010-03-30 07:52:09 51°13.411 2°51.235 5.7 -999 9.9 98960 42
2010-03-30 07:52:14 51°13.411 2°51.232 5.6 37 9.9 98960 42
2010-03-30 07:52:19 51°13.411 2°51.229 6.5 280 9.9 98960 44
2010-03-30 07:52:24 51°13.411 2°51.226 6.7 317 9.9 98960 44
2010-03-30 07:52:29 51°13.411 2°51.223 6.1 284 9.9 98960 43
2010-03-30 07:52:34 51°13.411 2°51.22 7 33 9.9 98960 43
2010-03-30 07:52:39 51°13.41 2°51.218 7.1 280 9.9 98960 44
2010-03-30 07:52:44 51°13.41 2°51.215 6.7 31 9.9 98960 44
2010-03-30 07:52:49 51°13.41 2°51.212 7.3 285 9.9 98960 42
2010-03-30 07:52:54 51°13.41 2°51.209 6.8 36 9.9 98960 42
2010-03-30 07:52:59 51°13.41 2°51.206 6.2 279 9.9 98960 42
2010-03-30 07:53:04 51°13.41 2°51.203 6.8 37 9.9 98960 42
2010-03-30 07:53:09 51°13.41 2°51.201 7.4 284 9.9 98960 44
2010-03-30 07:53:14 51°13.41 2°51.198 6.6 236 9.9 98960 44
2010-03-30 07:53:19 51°13.41 2°51.196 5.9 284 9.9 98960 44
2010-03-30 07:53:24 51°13.41 2°51.193 6.6 240 9.9 98960 44
2010-03-30 07:53:29 51°13.41 2°51.191 6.3 282 9.9 98960 42
2010-03-30 07:53:34 51°13.41 2°51.188 6.1 243 9.9 98960 42
2010-03-30 07:53:39 51°13.41 2°51.186 6.4 281 10 98960 42
2010-03-30 07:53:44 51°13.409 2°51.183 6.5 245 10 98960 42
2010-03-30 07:53:49 51°13.409 2°51.181 6.5 281 9.9 98960 42
2010-03-30 07:53:54 51°13.409 2°51.178 6.8 247 9.9 98960 42
2010-03-30 07:53:59 51°13.409 2°51.176 7.1 284 9.9 98960 44
2010-03-30 07:54:04 51°13.408 2°51.174 5.9 248 9.9 98960 44
2010-03-30 07:54:09 51°13.408 2°51.171 6.4 -999 9.9 98960 44
2010-03-30 07:54:14 51°13.408 2°51.169 7.2 249 9.9 98960 44
2010-03-30 07:54:19 51°13.408 2°51.167 6.3 285 9.9 98960 41
2010-03-30 07:54:24 51°13.407 2°51.164 6.1 250 9.9 98960 41
2010-03-30 07:54:29 51°13.407 2°51.162 5.2 279 9.9 98960 42
2010-03-30 07:54:34 51°13.407 2°51.16 6.2 255 9.9 98960 42
2010-03-30 07:54:39 51°13.406 2°51.157 6 282 9.9 98960 42
2010-03-30 07:54:44 51°13.406 2°51.155 6.4 252 9.9 98960 42
2010-03-30 07:54:49 51°13.406 2°51.153 6.3 282 9.9 98960 44
2010-03-30 07:54:54 51°13.405 2°51.15 7.1 252 9.9 98960 44
2010-03-30 07:54:59 51°13.405 2°51.148 6 281 9.9 98970 42
2010-03-30 07:55:04 51°13.404 2°51.146 6.2 257 9.9 98970 42
2010-03-30 07:55:09 51°13.404 2°51.143 5.4 284 9.9 98960 42
2010-03-30 07:55:14 51°13.403 2°51.141 6.4 258 9.9 98960 42
2010-03-30 07:55:19 51°13.403 2°51.139 6.5 278 9.9 98970 42
2010-03-30 07:55:24 51°13.402 2°51.137 7.2 256 9.9 98970 42
2010-03-30 07:55:29 51°13.402 2°51.134 7.4 279 9.9 98960 42
2010-03-30 07:55:34 51°13.401 2°51.132 4.6 261 9.9 98960 42
2010-03-30 07:55:39 51°13.401 2°51.13 4.9 284 9.9 98970 44
2010-03-30 07:55:44 51°13.4 2°51.127 6 257 9.9 98970 44
2010-03-30 07:55:49 51°13.4 2°51.125 5.7 279 9.9 98970 43
2010-03-30 07:55:54 51°13.399 2°51.123 5.2 260 9.9 98970 43
2010-03-30 07:55:59 51°13.399 2°51.12 5.8 280 9.9 98970 42
2010-03-30 07:56:04 51°13.398 2°51.118 5.4 259 9.9 98970 42
2010-03-30 07:56:09 51°13.398 2°51.116 4.3 -999 9.9 98970 42
2010-03-30 07:56:14 51°13.398 2°51.113 3.7 263 9.9 98970 42
2010-03-30 07:56:19 51°13.397 2°51.111 4.7 286 9.9 98970 42
2010-03-30 07:56:24 51°13.397 2°51.108 3.9 262 9.9 98970 42
2010-03-30 07:56:29 51°13.396 2°51.106 3.7 280 9.9 98970 44
2010-03-30 07:56:34 51°13.396 2°51.104 4.4 261 9.9 98970 44
2010-03-30 07:56:39 51°13.395 2°51.101 3.3 286 9.9 98970 42
2010-03-30 07:56:44 51°13.395 2°51.099 3.3 260 9.9 98970 42
2010-03-30 07:56:49 51°13.395 2°51.096 3.7 282 9.9 98970 44
2010-03-30 07:56:54 51°13.394 2°51.094 5.7 258 9.9 98970 44
2010-03-30 07:56:59 51°13.394 2°51.092 4.7 278 9.9 98970 43
2010-03-30 07:57:04 51°13.393 2°51.089 5.7 259 9.9 98970 43
2010-03-30 07:57:09 51°13.393 2°51.087 3.2 283 9.9 98970 42
2010-03-30 07:57:14 51°13.392 2°51.085 3.7 262 9.9 98970 42
2010-03-30 07:57:19 51°13.392 2°51.082 4.6 283 9.9 98970 42
2010-03-30 07:57:24 51°13.391 2°51.08 2.7 264 9.9 98970 42
2010-03-30 07:57:29 51°13.391 2°51.078 2.2 278 9.9 98970 44
2010-03-30 07:57:34 51°13.39 2°51.075 2.7 264 9.9 98970 44
2010-03-30 07:57:39 51°13.39 2°51.073 3.4 280 9.9 98970 42
2010-03-30 07:57:44 51°13.389 2°51.07 3.2 265 9.9 98970 42
2010-03-30 07:57:49 51°13.389 2°51.068 3.3 279 9.9 98970 44
2010-03-30 07:57:54 51°13.388 2°51.066 3 263 9.9 98970 44
2010-03-30 07:57:59 51°13.388 2°51.063 3.7 278 9.8 98970 42
2010-03-30 07:58:04 51°13.387 2°51.061 6.3 260 9.8 98970 42
2010-03-30 07:58:09 51°13.387 2°51.059 4.1 -999 9.8 98970 44
2010-03-30 07:58:14 51°13.386 2°51.056 3.6 265 9.8 98970 44
2010-03-30 07:58:19 51°13.386 2°51.054 4.4 280 9.9 98970 42
2010-03-30 07:58:24 51°13.386 2°51.052 3.1 264 9.9 98970 42
2010-03-30 07:58:29 51°13.385 2°51.049 2.6 285 9.9 98970 44
2010-03-30 07:58:34 51°13.385 2°51.047 2.7 265 9.9 98970 44
2010-03-30 07:58:39 51°13.384 2°51.045 4.9 283 9.8 98970 44
2010-03-30 07:58:44 51°13.384 2°51.042 2.8 263 9.8 98970 44
2010-03-30 07:58:49 51°13.383 2°51.04 3.9 279 9.8 98970 42
2010-03-30 07:58:54 51°13.383 2°51.038 2.8 264 9.8 98970 42
2010-03-30 07:58:59 51°13.383 2°51.035 3 281 9.8 98970 42
2010-03-30 07:59:04 51°13.382 2°51.033 3.4 265 9.8 98970 42
2010-03-30 07:59:09 51°13.382 2°51.03 2.7 281 9.9 98970 42
2010-03-30 07:59:14 51°13.381 2°51.028 4.2 265 9.9 98970 42
2010-03-30 07:59:19 51°13.381 2°51.026 3.3 278 9.9 98970 44
2010-03-30 07:59:24 51°13.38 2°51.024 3.6 264 9.9 98970 44
2010-03-30 07:59:29 51°13.38 2°51.021 4.3 283 9.9 98970 42
2010-03-30 07:59:34 51°13.38 2°51.019 3.2 265 9.9 98970 42
2010-03-30 07:59:39 51°13.379 2°51.017 3.8 279 9.9 98970 41
2010-03-30 07:59:44 51°13.378 2°51.014 2.9 263 9.9 98970 41
2010-03-30 07:59:49 51°13.378 2°51.012 3.4 278 9.9 98970 44
2010-03-30 07:59:54 51°13.378 2°51.01 3.2 264 9.9 98970 44
2010-03-30 07:59:59 51°13.377 2°51.008 2.5 279 9.9 98960 45
2010-03-30 08:00:04 51°13.377 2°51.005 3 261 9.9 98960 45
2010-03-30 08:00:09 51°13.376 2°51.003 3.3 -999 9.9 98960 45
2010-03-30 08:00:14 51°13.376 2°51.001 3.2 262 9.9 98960 45
2010-03-30 08:00:19 51°13.375 2°50.999 5.5 281 9.9 98970 41
2010-03-30 08:00:24 51°13.375 2°50.997 5.7 258 9.9 98970 41
2010-03-30 08:00:29 51°13.375 2°50.995 2.8 279 9.9 98960 44
2010-03-30 08:00:34 51°13.374 2°50.993 3.3 265 9.9 98960 44
2010-03-30 08:00:39 51°13.374 2°50.99 5.2 279 9.9 98960 43
2010-03-30 08:00:44 51°13.374 2°50.988 3.7 261 9.9 98960 43
2010-03-30 08:00:49 51°13.373 2°50.986 3.6 280 9.9 98960 42
2010-03-30 08:00:54 51°13.373 2°50.984 3.7 262 9.9 98960 42
2010-03-30 08:00:59 51°13.373 2°50.982 4 284 9.9 98960 42
2010-03-30 08:01:04 51°13.372 2°50.979 2.7 263 9.9 98960 42
2010-03-30 08:01:09 51°13.372 2°50.977 4.8 278 9.9 98960 42
2010-03-30 08:01:14 51°13.371 2°50.975 4.7 268 9.9 98960 42
2010-03-30 08:01:19 51°13.371 2°50.973 5.3 284 9.9 98960 43
2010-03-30 08:01:24 51°13.371 2°50.971 4.8 266 9.9 98960 43
2010-03-30 08:01:29 51°13.37 2°50.968 3.5 278 9.9 98970 44
2010-03-30 08:01:34 51°13.37 2°50.965 4.2 259 9.9 98970 44
2010-03-30 08:01:39 51°13.37 2°50.963 3.1 280 9.9 98970 41
2010-03-30 08:01:44 51°13.369 2°50.961 4.1 266 9.9 98970 41
2010-03-30 08:01:49 51°13.369 2°50.959 3.2 285 9.9 98970 42
2010-03-30 08:01:54 51°13.368 2°50.957 2.9 263 9.9 98970 42
2010-03-30 08:01:59 51°13.368 2°50.954 3.2 283 9.9 98970 42
2010-03-30 08:02:04 51°13.368 2°50.952 2.9 264 9.9 98970 42
2010-03-30 08:02:09 51°13.367 2°50.949 2.8 264 9.9 98960 41
2010-03-30 08:02:14 51°13.366 2°50.947 4.4 266 9.9 98960 41
2010-03-30 08:02:19 51°13.366 2°50.945 3.6 280 9.9 98970 43
2010-03-30 08:02:24 51°13.365 2°50.942 3.6 267 9.9 98970 43
2010-03-30 08:02:29 51°13.365 2°50.94 3.8 284 9.9 98970 45
2010-03-30 08:02:34 51°13.365 2°50.938 3.1 263 9.9 98970 45
2010-03-30 08:02:39 51°13.364 2°50.936 2.9 285 9.9 98960 45
2010-03-30 08:02:44 51°13.364 2°50.933 2.8 263 9.9 98960 45
2010-03-30 08:02:49 51°13.363 2°50.931 2.8 278 9.9 98960 44
2010-03-30 08:02:54 51°13.363 2°50.929 3.8 261 9.9 98960 44
2010-03-30 08:02:59 51°13.362 2°50.927 4.8 278 9.9 98960 42
2010-03-30 08:03:04 51°13.362 2°50.924 4.2 260 9.9 98960 42
2010-03-30 08:03:09 51°13.361 2°50.922 2.5 285 9.9 98960 41
2010-03-30 08:03:14 51°13.361 2°50.92 2.6 263 9.9 98960 41
2010-03-30 08:03:19 51°13.36 2°50.918 3.1 277 9.9 98960 44
2010-03-30 08:03:24 51°13.36 2°50.915 2.9 265 9.9 98960 44
2010-03-30 08:03:29 51°13.359 2°50.913 2.8 284 9.9 98960 45
2010-03-30 08:03:34 51°13.359 2°50.911 3.3 265 9.9 98960 45
2010-03-30 08:03:39 51°13.359 2°50.909 2.9 286 9.8 98960 45
2010-03-30 08:03:44 51°13.358 2°50.907 3.1 263 9.8 98960 45
2010-03-30 08:03:49 51°13.358 2°50.905 4.6 281 9.8 98960 44
2010-03-30 08:03:54 51°13.357 2°50.903 3.6 261 9.8 98960 44
2010-03-30 08:03:59 51°13.356 2°50.901 4.8 283 9.8 98960 42
2010-03-30 08:04:04 51°13.356 2°50.898 5.7 260 9.8 98960 42
2010-03-30 08:04:09 51°13.356 2°50.896 6.8 260 9.9 98960 44
2010-03-30 08:04:14 51°13.356 2°50.894 5.8 260 9.9 98960 44
2010-03-30 08:04:19 51°13.355 2°50.892 6.4 284 9.9 98970 43
2010-03-30 08:04:24 51°13.355 2°50.889 6.3 261 9.9 98970 43
2010-03-30 08:04:29 51°13.354 2°50.887 5.4 283 9.9 98960 43
2010-03-30 08:04:34 51°13.354 2°50.885 4.2 262 9.9 98960 43
2010-03-30 08:04:39 51°13.354 2°50.883 5.1 285 9.9 98970 42
2010-03-30 08:04:44 51°13.353 2°50.881 3.2 263 9.9 98970 42
2010-03-30 08:04:49 51°13.353 2°50.879 3.2 283 9.9 98960 42
2010-03-30 08:04:54 51°13.353 2°50.876 4.3 262 9.9 98960 42
2010-03-30 08:04:59 51°13.352 2°50.874 3.5 284 9.9 98960 43
2010-03-30 08:05:04 51°13.352 2°50.872 3 265 9.9 98960 43
2010-03-30 08:05:09 51°13.351 2°50.87 5.3 284 9.9 98960 44
2010-03-30 08:05:14 51°13.351 2°50.868 4.1 261 9.9 98960 44
2010-03-30 08:05:19 51°13.351 2°50.866 5.9 278 9.8 98960 44
2010-03-30 08:05:24 51°13.35 2°50.864 3.1 264 9.8 98960 44
2010-03-30 08:05:29 51°13.35 2°50.861 3.4 285 9.9 98970 43
2010-03-30 08:05:34 51°13.349 2°50.859 4.5 262 9.9 98970 43
2010-03-30 08:05:39 51°13.349 2°50.857 2.5 285 9.9 98970 45
2010-03-30 08:05:44 51°13.349 2°50.855 4.2 264 9.9 98970 45
2010-03-30 08:05:49 51°13.348 2°50.853 3.5 279 9.9 98960 45
2010-03-30 08:05:54 51°13.348 2°50.851 4.7 260 9.9 98960 45
2010-03-30 08:05:59 51°13.347 2°50.849 4.6 285 9.9 98970 42
2010-03-30 08:06:04 51°13.347 2°50.847 4.2 263 9.9 98970 42
2010-03-30 08:06:09 51°13.347 2°50.845 4.7 262 9.9 98970 42
2010-03-30 08:06:14 51°13.346 2°50.843 4.3 263 9.9 98970 42
2010-03-30 08:06:19 51°13.346 2°50.841 5.6 282 9.8 98970 45
2010-03-30 08:06:24 51°13.346 2°50.838 4.9 260 9.8 98970 45
2010-03-30 08:06:29 51°13.345 2°50.836 5.3 279 9.9 98960 45
2010-03-30 08:06:34 51°13.345 2°50.834 5.3 261 9.9 98960 45
2010-03-30 08:06:39 51°13.344 2°50.831 5.1 283 9.8 98970 42
2010-03-30 08:06:44 51°13.343 2°50.827 5.7 257 9.8 98970 42
2010-03-30 08:06:49 51°13.342 2°50.823 5.7 286 9.9 98970 45
2010-03-30 08:06:54 51°13.341 2°50.819 5.9 251 9.9 98970 45
2010-03-30 08:06:59 51°13.34 2°50.814 5.5 280 9.8 98960 42
2010-03-30 08:07:04 51°13.338 2°50.81 6.2 243 9.8 98960 42
2010-03-30 08:07:09 51°13.337 2°50.805 6.1 280 9.9 98960 45
2010-03-30 08:07:14 51°13.335 2°50.799 6.6 239 9.9 98960 45
2010-03-30 08:07:19 51°13.332 2°50.794 6.4 281 9.9 98950 44
2010-03-30 08:07:24 51°13.329 2°50.79 6.1 32 9.9 98950 44
2010-03-30 08:07:29 51°13.326 2°50.785 8.1 281 9.9 98940 44
2010-03-30 08:07:34 51°13.323 2°50.78 6.7 38 9.9 98940 44
2010-03-30 08:07:39 51°13.32 2°50.776 6.4 282 9.9 98950 42
2010-03-30 08:07:44 51°13.316 2°50.772 7.1 35 9.9 98950 44
2010-03-30 08:07:49 51°13.312 2°50.768 6.9 282 9.9 98950 44
2010-03-30 08:07:54 51°13.307 2°50.764 7.5 317 9.9 98950 44
2010-03-30 08:07:59 51°13.303 2°50.762 6.5 280 9.9 98940 43
2010-03-30 08:08:04 51°13.298 2°50.759 5.7 324 9.9 98940 43
2010-03-30 08:08:09 51°13.293 2°50.757 7.1 325 9.9 98940 42
2010-03-30 08:08:14 51°13.288 2°50.757 6.1 328 9.9 98940 42
2010-03-30 08:08:19 51°13.283 2°50.756 6.2 280 9.9 98940 42
2010-03-30 08:08:24 51°13.278 2°50.756 5.9 331 9.9 98940 42
2010-03-30 08:08:29 51°13.273 2°50.756 6.1 281 9.9 98940 43
2010-03-30 08:08:34 51°13.268 2°50.757 5.8 333 9.9 98940 43
2010-03-30 08:08:39 51°13.263 2°50.759 5.5 285 9.9 98940 43
2010-03-30 08:08:44 51°13.258 2°50.762 5.6 339 9.9 98940 43
2010-03-30 08:08:49 51°13.254 2°50.765 5.6 283 9.9 98940 44
2010-03-30 08:08:54 51°13.25 2°50.768 5.5 347 9.9 98940 44
2010-03-30 08:08:59 51°13.246 2°50.772 5.6 279 9.9 98940 42
2010-03-30 08:09:04 51°13.243 2°50.776 5.6 353 9.9 98940 42
2010-03-30 08:09:09 51°13.24 2°50.781 5.5 356 9.9 98950 44
2010-03-30 08:09:14 51°13.238 2°50.786 6 358 9.9 98950 44
2010-03-30 08:09:19 51°13.236 2°50.792 5.4 2 9.9 98940 44
2010-03-30 08:09:24 51°13.235 2°50.797 5.7 4 9.9 98940 44
2010-03-30 08:09:29 51°13.235 2°50.802 6.1 9 9.9 98940 44
2010-03-30 08:09:34 51°13.236 2°50.807 5.9 8 9.9 98940 44
2010-03-30 08:09:39 51°13.237 2°50.811 5.7 13 9.9 98940 43
2010-03-30 08:09:44 51°13.239 2°50.816 5.2 19 9.9 98940 45
2010-03-30 08:09:49 51°13.241 2°50.82 4.2 20 9.9 98940 45
2010-03-30 08:09:54 51°13.243 2°50.823 5 16 9.9 98940 45
2010-03-30 08:09:59 51°13.247 2°50.827 5.3 16 9.9 98940 45
2010-03-30 08:10:04 51°13.251 2°50.83 5.8 21 9.9 98940 45
2010-03-30 08:10:09 51°13.254 2°50.833 5.3 26 10 98940 44
2010-03-30 08:10:14 51°13.259 2°50.837 5.5 22 10 98940 44
2010-03-30 08:10:19 51°13.263 2°50.841 4.9 17 9.9 98940 44
2010-03-30 08:10:24 51°13.268 2°50.846 4.9 18 9.9 98940 44
2010-03-30 08:10:29 51°13.273 2°50.851 5.7 18 10 98950 45
2010-03-30 08:10:34 51°13.277 2°50.857 4.9 19 10 98950 45
2010-03-30 08:10:39 51°13.282 2°50.863 4.7 11 9.9 98940 42
2010-03-30 08:10:44 51°13.286 2°50.869 4.3 17 9.9 98940 42